Location: Arcusa
(42.3167°N, 0.0833°W)
Time: 21:51:17
(UTC+00:00)

Cosmos 2360 Rocket - Pass Details

Date: 25 January 2020
Orbit: 834 x 845 km, 71.0° (Epoch: 17 February)

Event Time Altitude Azimuth Distance (km) Brightness Sun altitude
Rises 05:04:18 0° 168° (SSE) 3,388 5.5 -25.2°
Reaches altitude 10° 05:07:07 10° 155° (SSE) 2,458 4.9 -24.6°
Maximum altitude 05:11:38 25° 102° (ESE) 1,637 4.4 -23.8°
Drops below altitude 10° 05:16:09 10° 49° (NE) 2,471 5.2 -23.0°
Sets 05:18:59 0° 36° (NE) 3,410 5.8 -22.4°
